WetterOnline ( http://www.wetteronline.de )

Wetter aktuell Bamberg

Aktuelles Wetter: Bamberg (243m)

6-stündlich | Neueste Meldungen
Ortszeit Temperatur Wetter
Do, 21.06. 2:00 14.8° C wolkenlos
Mi, 20.06. 20:00 27.8° C wolkenlos
Mi, 20.06. 14:00 27.5° C fast wolkenlos
Mi, 20.06. 8:00 18.5° C leicht bewölkt
Mi, 20.06. 2:00 14.2° C wolkenlos
Di, 19.06. 20:00 23.3° C bedeckt
Di, 19.06. 14:00 23.3° C bewölkt
Di, 19.06. 8:00 17.9° C wolkenlos
Ortszeit Temperatur Wetter
Do, 21.06. 6:30 15.9° C leicht bewölkt
Do, 21.06. 6:20 15.9° C leicht bewölkt
Do, 21.06. 6:10 15.0° C wolkig
Do, 21.06. 6:00 14.1° C wolkig
Do, 21.06. 5:50 14.1° C wolkig
Do, 21.06. 5:40 13.4° C leicht bewölkt
Do, 21.06. 5:30 13.4° C wolkig
Do, 21.06. 5:00 13.7° C wolkenlos
Do, 21.06. 4:30 13.8° C leicht bewölkt
Do, 21.06. 4:00 14.1° C fast wolkenlos
Do, 21.06. 3:30 14.2° C wolkenlos
Ortszeit Relative Feuchte Sichtweite
Do, 21.06. 2:00 98% 9 km
Mi, 20.06. 20:00 46% 60 km
Mi, 20.06. 14:00 42% 45 km
Mi, 20.06. 8:00 75% 24 km
Mi, 20.06. 2:00 96% 20 km
Di, 19.06. 20:00 56% 70 km
Di, 19.06. 14:00 57% 55 km
Di, 19.06. 8:00 74% 30 km
Ortszeit Relative Feuchte Sichtweite
Do, 21.06. 6:30 95% 10 km
Do, 21.06. 6:20 95% -
Do, 21.06. 6:10 97% -
Do, 21.06. 6:00 99% 9 km
Do, 21.06. 5:50 99% -
Do, 21.06. 5:40 98% -
Do, 21.06. 5:30 98% 5.0 km
Do, 21.06. 5:00 97% 6 km
Do, 21.06. 4:30 98% 6 km
Do, 21.06. 4:00 98% 5.0 km
Do, 21.06. 3:30 97% 7 km
Ortszeit Niederschlagsmenge Niederschlagsart
Do, 21.06. 2:00 0.0 l/m2 in 6 Std. -
Mi, 20.06. 20:00 0.0 l/m2 in 12 Std. -
Mi, 20.06. 14:00 0.0 l/m2 in 6 Std. -
Mi, 20.06. 8:00 0.0 l/m2 in 12 Std. -
Mi, 20.06. 2:00 0.0 l/m2 in 6 Std. -
Di, 19.06. 20:00 0.0 l/m2 in 12 Std. -
Di, 19.06. 14:00 0.0 l/m2 in 6 Std. -
Di, 19.06. 8:00 0.0 l/m2 in 12 Std. -
Ortszeit Niederschlagsmenge Niederschlagsart
Do, 21.06. 6:30 0.0 l/m2 in 1 Std. -
Do, 21.06. 6:20 keine Meldung -
Do, 21.06. 6:10 keine Meldung -
Do, 21.06. 6:00 0.0 l/m2 in 1 Std. -
Do, 21.06. 5:50 keine Meldung -
Do, 21.06. 5:40 keine Meldung -
Do, 21.06. 5:30 0.0 l/m2 in 1 Std. -
Do, 21.06. 5:00 0.0 l/m2 in 1 Std. -
Do, 21.06. 4:30 0.0 l/m2 in 1 Std. -
Do, 21.06. 4:00 0.0 l/m2 in 1 Std. -
Do, 21.06. 3:30 0.0 l/m2 in 1 Std. -
Ortszeit Stärke Spitze Richtung
km/h Bft. km/h Grad Sektor
Do, 21.06. 2:00 2 1 15 110° O
Mi, 20.06. 20:00 11 2 22 290° W
Mi, 20.06. 14:00 7 2 29 140° SO
Mi, 20.06. 8:00 2 1 4 50° NO
Mi, 20.06. 2:00 4 1 18 70° O
Di, 19.06. 20:00 9 2 26 310° NW
Di, 19.06. 14:00 9 2 28 280° W
Di, 19.06. 8:00 7 2 11 140° SO
Ortszeit Stärke Spitze Richtung
km/h Bft. km/h Grad Sektor
Do, 21.06. 6:30 0 0 4 - -
Do, 21.06. 6:20 2 1 - 120° SO
Do, 21.06. 6:10 4 1 - 120° SO
Do, 21.06. 6:00 0 0 4 - -
Do, 21.06. 5:50 0 0 - - -
Do, 21.06. 5:40 2 1 - 130° SO
Do, 21.06. 5:30 4 1 4 130° SO
Do, 21.06. 5:00 4 1 4 90° O
Do, 21.06. 4:30 4 1 4 120° SO
Do, 21.06. 4:00 4 1 4 100° O
Do, 21.06. 3:30 4 1 4 110° O
Ortszeit Untergrenze Bedeckung Gattung
total tief tief mittel hoch
Do, 21.06. 2:00 - 0/8 0/8 - - -
Mi, 20.06. 20:00 - 0/8 0/8 - - -
Mi, 20.06. 14:00 1500 m 1/8 - - - -
Mi, 20.06. 8:00 1290 m 2/8 5/8 - - -
Mi, 20.06. 2:00 - 0/8 0/8 - - -
Di, 19.06. 20:00 1800 m 8/8 8/8 - - -
Di, 19.06. 14:00 1170 m 7/8 7/8 - - -
Di, 19.06. 8:00 - 0/8 0/8 - - -
Ortszeit Bedeckungsgrad in Achtel und Wolkenuntergrenze
Do, 21.06. 6:30 4(2100m)
Do, 21.06. 6:20 4(2100m)
Do, 21.06. 6:10 3(1800m) 5(2100m)
Do, 21.06. 6:00 5(2100m)
Do, 21.06. 5:50 5(2100m)
Do, 21.06. 5:40 4(2100m)
Do, 21.06. 5:30 5(2100m)
Do, 21.06. 5:00 1(1800m)
Do, 21.06. 4:30 2(2100m)
Do, 21.06. 4:00 1(1800m)
Do, 21.06. 3:30 keine Wolken
Ortszeit Luftdruck NN (hPa) Tendenz (hPa in 3 Std.)
Do, 21.06. 2:00 1017 - 0,7
Mi, 20.06. 20:00 1017 - 1,3
Mi, 20.06. 14:00 1020 - 1,5
Mi, 20.06. 8:00 1023 - 0,3
Mi, 20.06. 2:00 1024 + 0,1
Di, 19.06. 20:00 1023 - 0,1
Di, 19.06. 14:00 1023 0,0
Di, 19.06. 8:00 1024 + 0,6
Ortszeit Luftdruck NN (hPa) Tendenz (hPa in 3 Std.)
Do, 21.06. 6:30 1015 - 1,3
Do, 21.06. 6:20 1015 keine Meldung
Do, 21.06. 6:10 1015 keine Meldung
Do, 21.06. 6:00 1016 - 1,3
Do, 21.06. 5:50 1016 keine Meldung
Do, 21.06. 5:40 1016 keine Meldung
Do, 21.06. 5:30 1016 - 1,4
Do, 21.06. 5:00 1016 - 1,5
Do, 21.06. 4:30 1016 - 1,3
Do, 21.06. 4:00 1016 - 1,1
Do, 21.06. 3:30 1017 - 1,1
Ortszeit Schneehöhe (cm)
Do, 21.06. 2:00 -
Mi, 20.06. 20:00 -
Mi, 20.06. 14:00 -
Mi, 20.06. 8:00 -
Mi, 20.06. 2:00 -
Di, 19.06. 20:00 -
Di, 19.06. 14:00 -
Di, 19.06. 8:00 -
Ortszeit Schneehöhe (cm)
Do, 21.06. 6:30 -
Do, 21.06. 6:20 -
Do, 21.06. 6:10 -
Do, 21.06. 6:00 -
Do, 21.06. 5:50 -
Do, 21.06. 5:40 -
Do, 21.06. 5:30 -
Do, 21.06. 5:00 -
Do, 21.06. 4:30 -
Do, 21.06. 4:00 -
Do, 21.06. 3:30 -
Link zu dieser Seite / Seite empfehlen

Das Wetter in ...